Track ONEWEB-0126 now! 10-day predictions ONEWEB-0126 is classified as:
1 47272U 20100Q 21024.16667824 -.01465644 00000-0 -14219+0 0 9992 2 47272 87.4585 26.8597 0011691 123.8922 199.7803 14.96278366 5591